Вернуться в каталог

ARIANE 40 R/B

АктивенPO
NORAD 25979·ROCKET BODY·🇫🇷 France

Запущен Dec 3, 1999 с Guiana Space Centre

Loading…

Ближайшие Пролёты (ближайшие 24 часа)

TLE

СвежийSource: Space-Track

Эпоха: Sep 14, 2026, 06:19 UTC

1 25979U 99064C   26257.26386643  .00015245  00000-0  41283-3 0  9998
2 25979  98.1618 359.3101 0004292 138.3508 221.8062 15.37781178457605

Отслеживайте ARIANE 40 R/B в реальном времени с AllMySat

Download on the App Store